When you browse on this site, cookies collect data to enhance your experience and personalize the content and advertising you see.
Visit our Privacy Policy to learn more. By continuing to use the site, you agree to this use of cookies and data.
  • In Portugal
  • List of Countries
  • For 7 days
  • Water Temperature
  • Satellite Maps
  • Weather Map
  • Weather Widgets
  • user-avatar
    Login

    Hourly Weather Killarney

    Today, 23 March, Saturday

    Time Temperature Precipitation Wind Pressure Humidity
    00:00 +5°C° 0 mm 2 mps 771 mmHg 77%
    01:00 +6°C° 0 mm 1 mps 771 mmHg 77%
    02:00 +6°C° 0 mm 1 mps 771 mmHg 77%
    03:00 +6°C° 0 mm 1 mps 771 mmHg 77%
    04:00 +6°C° 0 mm 1 mps 771 mmHg 77%
    05:00 +5°C° 0 mm 1 mps 771 mmHg 77%
    06:00 +6°C° 0 mm 1 mps 772 mmHg 74%
    07:00 +7°C° 0 mm 1 mps 772 mmHg 71%
    08:00 +7°C° 0 mm 1 mps 772 mmHg 68%
    09:00 +8°C° 0 mm 1 mps 772 mmHg 65%
    10:00 +7°C° 0 mm 2 mps 773 mmHg 62%
    11:00 +8°C° 0 mm 2 mps 773 mmHg 59%
    12:00 +8°C° 0 mm 2 mps 773 mmHg 60%
    13:00 +8°C° 0 mm 2 mps 773 mmHg 61%
    14:00 +9°C° 0 mm 1 mps 773 mmHg 61%
    15:00 +9°C° 0.1 mm 1 mps 772 mmHg 67%
    16:00 +8°C° 0.1 mm 1 mps 772 mmHg 73%
    17:00 +8°C° 0.1 mm 1 mps 772 mmHg 79%
    18:00 +7°C° 0 mm 1 mps 772 mmHg 81%
    19:00 +6°C° 0 mm 1 mps 773 mmHg 83%
    20:00 +6°C° 0 mm 1 mps 773 mmHg 85%
    21:00 +5°C° 0 mm 1 mps 773 mmHg 86%
    22:00 +4°C° 0 mm 1 mps 773 mmHg 87%
    23:00 +4°C° 0 mm 1 mps 773 mmHg 88%

    Tomorrow, 24 March, Sunday

    Time Temperature Precipitation Wind Pressure Humidity
    00:00 +3°C° 0 mm 1 mps 773 mmHg 88%
    01:00 +3°C° 0 mm 1 mps 773 mmHg 88%
    02:00 +3°C° 0 mm 1 mps 773 mmHg 88%
    03:00 +3°C° 0 mm 1 mps 773 mmHg 87%
    04:00 +3°C° 0 mm 1 mps 773 mmHg 87%
    05:00 +3°C° 0 mm 1 mps 773 mmHg 87%
    06:00 +4°C° 0 mm 1 mps 773 mmHg 82%
    07:00 +6°C° 0 mm 1 mps 774 mmHg 76%
    08:00 +7°C° 0 mm 2 mps 774 mmHg 70%
    09:00 +8°C° 0 mm 2 mps 774 mmHg 67%
    10:00 +9°C° 0 mm 3 mps 774 mmHg 64%
    11:00 +10°C° 0 mm 3 mps 774 mmHg 61%
    12:00 +10°C° 0 mm 3 mps 774 mmHg 61%
    13:00 +10°C° 0 mm 3 mps 774 mmHg 61%
    14:00 +10°C° 0 mm 3 mps 774 mmHg 61%
    15:00 +10°C° 0 mm 2 mps 774 mmHg 65%
    16:00 +9°C° 0 mm 2 mps 774 mmHg 69%
    17:00 +8°C° 0 mm 2 mps 774 mmHg 74%
    18:00 +8°C° 0 mm 1 mps 774 mmHg 78%
    19:00 +6°C° 0 mm 1 mps 774 mmHg 83%
    20:00 +5°C° 0 mm 1 mps 775 mmHg 87%
    21:00 +5°C° 0 mm 1 mps 775 mmHg 88%
    22:00 +4°C° 0 mm 1 mps 775 mmHg 88%
    23:00 +3°C° 0 mm 0 mps 775 mmHg 88%

    Day after tomorrow, 25 March, Monday

    Time Temperature Precipitation Wind Pressure Humidity
    00:00 +3°C° 0 mm 0 mps 775 mmHg 88%
    01:00 +3°C° 0 mm 0 mps 775 mmHg 89%
    02:00 +3°C° 0 mm 0 mps 774 mmHg 89%
    03:00 +4°C° 0 mm 1 mps 774 mmHg 90%
    04:00 +3°C° 0 mm 1 mps 774 mmHg 90%
    05:00 +3°C° 0 mm 1 mps 774 mmHg 91%
    06:00 +5°C° 0 mm 1 mps 774 mmHg 85%
    07:00 +7°C° 0 mm 1 mps 774 mmHg 80%
    08:00 +8°C° 0 mm 1 mps 774 mmHg 74%
    09:00 +9°C° 0 mm 1 mps 775 mmHg 69%
    10:00 +10°C° 0 mm 2 mps 775 mmHg 65%
    11:00 +12°C° 0 mm 2 mps 775 mmHg 60%
    12:00 +13°C° 0 mm 2 mps 774 mmHg 60%
    13:00 +13°C° 0 mm 2 mps 774 mmHg 61%
    14:00 +13°C° 0 mm 2 mps 774 mmHg 61%
    15:00 +12°C° 0 mm 2 mps 774 mmHg 66%
    16:00 +12°C° 0 mm 2 mps 773 mmHg 72%
    17:00 +11°C° 0 mm 1 mps 773 mmHg 77%
    18:00 +9°C° 0 mm 1 mps 774 mmHg 82%
    19:00 +8°C° 0 mm 1 mps 774 mmHg 87%
    20:00 +6°C° 0 mm 1 mps 774 mmHg 92%
    21:00 +6°C° 0 mm 1 mps 774 mmHg 92%
    22:00 +5°C° 0 mm 1 mps 774 mmHg 93%
    23:00 +5°C° 0 mm 1 mps 774 mmHg 94%

    26 March, Tuesday

    Time Temperature Precipitation Wind Pressure Humidity
    00:00 +5°C° 0 mm 1 mps 774 mmHg 94%
    01:00 +5°C° 0 mm 1 mps 774 mmHg 95%
    02:00 +5°C° 0 mm 1 mps 774 mmHg 95%
    03:00 +4°C° 0 mm 2 mps 774 mmHg 96%
    04:00 +4°C° 0 mm 2 mps 773 mmHg 96%
    05:00 +4°C° 0 mm 2 mps 773 mmHg 97%
    06:00 +5°C° 0 mm 2 mps 773 mmHg 92%
    07:00 +8°C° 0 mm 1 mps 774 mmHg 88%
    08:00 +9°C° 0 mm 1 mps 774 mmHg 83%
    09:00 +10°C° 0 mm 2 mps 774 mmHg 77%
    10:00 +12°C° 0 mm 2 mps 774 mmHg 70%
    11:00 +14°C° 0 mm 2 mps 774 mmHg 64%
    12:00 +14°C° 0 mm 2 mps 774 mmHg 63%
    13:00 +13°C° 0 mm 3 mps 773 mmHg 62%
    14:00 +14°C° 0 mm 3 mps 773 mmHg 61%
    15:00 +14°C° 0 mm 2 mps 773 mmHg 66%
    16:00 +13°C° 0 mm 2 mps 773 mmHg 71%
    17:00 +12°C° 0 mm 1 mps 773 mmHg 77%
    18:00 +11°C° 0 mm 1 mps 773 mmHg 81%
    19:00 +9°C° 0 mm 1 mps 773 mmHg 86%
    20:00 +6°C° 0 mm 0 mps 774 mmHg 91%
    21:00 +6°C° 0 mm 0 mps 774 mmHg 91%
    22:00 +7°C° 0 mm 1 mps 774 mmHg 91%
    23:00 +6°C° 0 mm 1 mps 774 mmHg 92%

    27 March, Wednesday

    Time Temperature Precipitation Wind Pressure Humidity
    00:00 +6°C° 0 mm 1 mps 774 mmHg 92%
    01:00 +6°C° 0 mm 1 mps 773 mmHg 92%
    02:00 +6°C° 0 mm 1 mps 773 mmHg 92%
    03:00 +5°C° 0 mm 1 mps 773 mmHg 91%
    04:00 +5°C° 0 mm 1 mps 773 mmHg 91%
    05:00 +5°C° 0 mm 1 mps 773 mmHg 90%
    06:00 +7°C° 0 mm 1 mps 773 mmHg 85%
    07:00 +8°C° 0 mm 1 mps 773 mmHg 80%
    08:00 +10°C° 0 mm 1 mps 773 mmHg 74%
    09:00 +10°C° 0 mm 2 mps 773 mmHg 70%
    10:00 +13°C° 0 mm 2 mps 773 mmHg 65%
    11:00 +13°C° 0 mm 3 mps 773 mmHg 60%
    12:00 +14°C° 0 mm 3 mps 773 mmHg 59%
    13:00 +14°C° 0 mm 3 mps 773 mmHg 58%
    14:00 +14°C° 0 mm 3 mps 772 mmHg 57%
    15:00 +13°C° 0 mm 3 mps 772 mmHg 62%
    16:00 +12°C° 0 mm 3 mps 772 mmHg 66%
    17:00 +12°C° 0 mm 2 mps 772 mmHg 70%
    18:00 +9°C° 0 mm 2 mps 772 mmHg 76%
    19:00 +7°C° 0 mm 2 mps 772 mmHg 83%
    20:00 +6°C° 0 mm 2 mps 772 mmHg 89%
    21:00 +5°C° 0 mm 2 mps 772 mmHg 89%
    22:00 +5°C° 0 mm 2 mps 772 mmHg 89%
    23:00 +5°C° 0 mm 2 mps 772 mmHg 89%

    28 March, Thursday

    Time Temperature Precipitation Wind Pressure Humidity
    00:00 +5°C° 0 mm 2 mps 771 mmHg 90%
    01:00 +5°C° 0 mm 2 mps 771 mmHg 91%
    02:00 +5°C° 0 mm 2 mps 771 mmHg 92%
    03:00 +5°C° 0 mm 2 mps 771 mmHg 93%
    04:00 +5°C° 0 mm 2 mps 771 mmHg 93%
    05:00 +5°C° 0 mm 2 mps 771 mmHg 93%
    06:00 +7°C° 0 mm 3 mps 771 mmHg 89%
    07:00 +9°C° 0 mm 3 mps 771 mmHg 84%
    08:00 +10°C° 0 mm 3 mps 771 mmHg 79%
    09:00 +12°C° 0 mm 4 mps 771 mmHg 74%
    10:00 +13°C° 0 mm 4 mps 771 mmHg 69%
    11:00 +15°C° 0 mm 5 mps 770 mmHg 64%
    12:00 +15°C° 0 mm 5 mps 770 mmHg 64%
    13:00 +15°C° 0 mm 5 mps 770 mmHg 64%
    14:00 +15°C° 0 mm 5 mps 769 mmHg 64%
    15:00 +14°C° 0 mm 4 mps 769 mmHg 69%
    16:00 +13°C° 0 mm 4 mps 769 mmHg 74%
    17:00 +12°C° 0 mm 3 mps 769 mmHg 79%
    18:00 +10°C° 0 mm 3 mps 769 mmHg 85%
    19:00 +9°C° 0 mm 3 mps 769 mmHg 90%
    20:00 +7°C° 0 mm 2 mps 769 mmHg 96%
    21:00 +7°C° 0 mm 2 mps 769 mmHg 97%
    22:00 +7°C° 0 mm 2 mps 769 mmHg 97%
    23:00 +7°C° 0 mm 2 mps 768 mmHg 97%
    Show more